This is the latest recevied weather packets stored in our database for station/object 9A7DI-13. If no packets are shown the sender has not sent any weather packets the latest 10 day(s).
| Time | Temp. | Humidity | Pressure | Rain* | Wind** | Luminosity | Snow |
|---|---|---|---|---|---|---|---|
| 1777095446 | 13.33° C | 57% | 1025.3 hPa | - | - | - | - |
| 1777094846 | 12.78° C | 58% | 1025.3 hPa | - | - | - | - |
| 1777094246 | 11.11° C | 60% | 1025.3 hPa | - | - | - | - |
| 1777093646 | 10° C | 64% | 1025.3 hPa | - | - | - | - |
| 1777093046 | 9.44° C | 66% | 1025.3 hPa | - | - | - | - |
| 1777092446 | 7.78° C | 69% | 1025.3 hPa | - | - | - | - |
| 1777091846 | 6.67° C | 72% | 1025.2 hPa | - | - | - | - |
| 1777091246 | 5° C | 74% | 1025.3 hPa | - | - | - | - |
| 1777090646 | 5° C | 77% | 1024.9 hPa | - | - | - | - |
| 1777090046 | 5° C | 76% | 1024.6 hPa | - | - | - | - |
| 1777089446 | 5° C | 78% | 1024.5 hPa | - | - | - | - |
| 1777088846 | 4.44° C | 78% | 1024.5 hPa | - | - | - | - |
| 1777088247 | 4.44° C | 77% | 1024.5 hPa | - | - | - | - |
| 1777087647 | 4.44° C | 76% | 1024.5 hPa | - | - | - | - |
| 1777087046 | 5° C | 76% | 1024.6 hPa | - | - | - | - |
| 1777086446 | 5° C | 75% | 1024.5 hPa | - | - | - | - |
| 1777085847 | 5° C | 75% | 1024.6 hPa | - | - | - | - |
| 1777085247 | 5° C | 75% | 1024.6 hPa | - | - | - | - |
| 1777084646 | 4.44° C | 75% | 1024.5 hPa | - | - | - | - |
| 1777084047 | 5° C | 74% | 1024.6 hPa | - | - | - | - |
| 1777083446 | 5.56° C | 74% | 1024.3 hPa | - | - | - | - |
| 1777082847 | 5.56° C | 73% | 1024.4 hPa | - | - | - | - |
| 1777082247 | 5.56° C | 73% | 1024.3 hPa | - | - | - | - |
| 1777081646 | 5.56° C | 70% | 1024.2 hPa | - | - | - | - |
| 1777081047 | 6.11° C | 70% | 1024.2 hPa | - | - | - | - |
* Rain since midnight (hover to see other rain measurements)
** Current wind speed in m/s (hover to see current wind gust speed)